[[{"header":{"parameterUnit":"m.s-1","parameterCategory":1,"la1":30.2991,"la2":30.254,"lo1":-89.0895,"lo2":-89.0444,"dy":0.0017,"dx":0.0017,"nx":28,"ny":28,"refTime":"2024-03-25T03:00:00:Z","depth":0,"parameterNumber":2,"parameterNumberName":"U-component_of_WINDS"},"data":[0,0,0,0,0,0,0,0,0,0,0,0,0,0,0,0,0,0,0,0,0,0,0,0,0,0,0,0,0,0,0,0,0,0,0,0,0,0,0,0,0,0,0,0,0,0,0,0,0,0,0,0,0,0,0,0,0,0,-5.9045,-5.9046,0,-5.912,-5.9121,-5.9122,-5.9089,-5.9087,-5.9085,-5.9083,-5.9159,-5.9163,-5.9167,0,0,0,0,0,0,0,0,0,0,0,0,0,-5.8873,-5.8877,-5.9045,-5.9046,-5.9047,-5.912,-5.9121,-5.9122,-5.9089,-5.9087,-5.9084,-5.9082,-5.9158,-5.9162,-5.9167,0,0,0,0,0,0,0,0,0,0,0,0,0,-5.8948,-5.8878,-5.9045,-5.9039,-5.904,-5.912,-5.9121,-5.9122,-5.9089,-5.9087,-5.9084,-5.9081,-5.9157,-5.9162,-5.9168,-5.9257,0,0,-5.9185,-5.9187,0,0,0,0,0,0,0,0,-5.8944,-5.8954,-5.9039,-5.904,-5.904,-5.9092,-5.9088,-5.9168,-5.909,-5.907,-5.9083,-5.908,-5.9139,-5.9146,-5.9166,-5.9261,-5.9264,-5.9185,-5.9189,-5.9191,-5.9193,0,0,0,0,0,0,0,-5.8939,-5.8951,-5.9075,-5.9041,-5.9041,-5.9033,-5.9041,-5.9103,-5.9119,-5.9072,-5.907,-5.9079,-5.9139,-5.9161,-5.9168,-5.9265,-5.9185,-5.919,-5.9193,-5.9196,-5.9438,-5.9441,0,0,0,0,0,0,-5.8934,-5.8947,-5.9072,-5.9077,-5.8984,-5.9038,-5.9047,-5.9078,-5.9119,-5.9122,-5.9081,-5.9077,-5.9153,-5.9161,-5.917,-5.9278,-5.9191,-5.9196,-5.9199,-5.9435,-5.9439,-5.9442,0,0,0,0,0,0,-5.893,-5.8945,-5.9069,-5.9012,-5.9027,-5.9044,-5.908,-5.9081,-5.9103,-5.9126,-5.9128,-5.9101,-5.9151,-5.9162,-5.9236,-5.928,-5.9199,-5.9204,-5.9432,-5.9436,-5.9441,-5.9494,0,0,0,0,0,0,-5.8925,-5.8944,-5.8978,-5.9013,-5.903,-5.9134,-5.9083,-5.9085,-5.9113,-5.9108,-5.9145,-5.9148,-5.9149,-5.9228,-5.9242,-5.9286,-5.9208,-5.9428,-5.9434,-5.9439,-5.9488,-5.9499,-5.9509,0,0,0,0,0,-5.8919,-5.899,-5.898,-5.8996,-5.9073,-5.9137,-5.9147,-5.9147,-5.9117,-5.9151,-5.9166,-5.9147,-5.9273,-5.9236,-5.9251,-5.9298,-5.9425,-5.9432,-5.9439,-5.9483,-5.9497,-5.9509,0,0,0,0,0,0,-5.896,-5.8994,-5.8984,-5.9068,-5.91,-5.9131,-5.9174,-5.9162,-5.9203,-5.9196,-5.9195,-5.9204,-5.928,-5.9297,-5.9254,-5.9387,-5.9344,-5.9355,-5.9373,-5.9387,-5.9397,-5.9391,-5.9213,0,0,0,0,0,-5.8979,-5.9028,-5.9055,-5.9127,-5.9143,-5.9156,-5.9184,-5.9182,-5.9215,-5.9228,-5.9248,-5.928,-5.9327,-5.9358,-5.9403,-5.9491,-5.9498,-5.9531,-5.9541,-5.955,-5.9558,-5.9606,-5.9621,-5.9465,-5.9465,-5.9465,0,0,-5.9018,-5.9043,-5.9074,-5.9136,-5.916,-5.921,-5.9168,-5.9223,-5.926,-5.9236,-5.9306,-5.9323,-5.9359,-5.9441,-5.9477,-5.9457,-5.9604,-5.9559,-5.9566,-5.9569,-5.9615,-5.9629,-5.9643,-5.947,-5.9469,-5.9468,0,0,-5.9115,-5.9139,-5.9201,-5.9227,-5.9264,-5.9273,-5.9288,-5.9322,-5.9331,-5.9403,-5.9386,-5.943,-5.9512,-5.9538,-5.9562,-5.9671,-5.9655,-5.9686,-5.974,-5.9787,-5.9799,-5.981,-5.9848,-5.9861,-5.9694,-5.9694,-5.9694,0,-5.9158,-5.9234,-5.9234,-5.9291,-5.9319,-5.93,-5.9363,-5.9388,-5.9438,-5.9457,-5.9434,-5.9536,-5.9559,-5.9646,-5.9673,-5.9693,-5.971,-5.968,-5.9797,-5.9808,-5.9818,-5.9854,-5.9869,-5.9698,-5.9697,-5.9697,-5.9697,0,-5.9285,-5.9338,-5.9383,-5.9433,-5.9466,-5.9525,-5.9535,-5.9569,-5.9564,-5.9575,-5.9648,-5.9676,-5.9725,-5.9747,-5.9743,-5.9834,-5.9819,-5.9797,-5.9754,-5.9837,-5.987,-5.9884,-5.9703,-5.9701,-5.97,-5.97,0,0,-5.9407,-5.9457,-5.9474,-5.9496,-5.9537,-5.9578,-5.9637,-5.9686,-5.9715,-5.9751,-5.98,-5.987,-5.985,-5.9877,-5.9876,-5.9918,-6.0001,-5.989,-5.9891,-5.9908,-6.0102,-6.0118,-6.0134,-5.9992,-5.9994,-5.9996,-6.0099,0,-5.9506,-5.9609,-5.9612,-5.9706,-5.9755,-5.9739,-5.9791,-5.9821,-5.9834,-5.9877,-5.9891,-5.994,-5.991,-5.9926,-5.9967,-5.9982,-6.004,-5.9975,-6.0036,-6.0039,-6.0026,-6.0151,-6.0168,-6.0263,-6.0112,-6.0114,-6.0116,0,-5.9634,-5.9675,-5.9774,-5.9809,-5.9829,-5.9875,-5.9921,-5.9962,-5.9997,-6.0004,-6.0035,-6.0029,-6.0089,-6.0046,-6.0129,-6.0085,-6.0111,-6.0122,-6.0126,-6.013,-6.0081,-6.0157,-6.0293,-6.0307,-6.0137,-6.0135,-6.0134,0,-5.9712,-5.9791,-5.9861,-5.9881,-5.9923,-5.9956,-5.9975,-6.0008,-6.0037,-6.0077,-6.0096,-6.0143,-6.0168,-6.0205,-6.0211,-6.0179,-6.0295,-6.0252,-6.0301,-6.0301,-6.0324,-6.0322,-6.0464,-6.0344,-6.0343,-6.0343,-6.0343,0,-5.9821,-5.9882,-5.9896,-5.9939,-6.0007,-6.0011,-6.0078,-6.0095,-6.0124,-6.017,-6.016,-6.0202,-6.0209,-6.0254,-6.026,-6.0327,-6.0339,-6.0346,-6.0346,-6.0345,-6.0344,-6.0361,-6.0354,-6.0347,-6.0346,-6.0345,-6.0345,0,-5.9918,-5.993,-6.0005,-6.004,-6.005,-6.0098,-6.0128,-6.0169,-6.0181,-6.0239,-6.0253,-6.0272,-6.0324,-6.0335,-6.0397,-6.04,-6.048,-6.0475,-6.0468,-6.0467,-6.0515,-6.051,-6.0671,-6.0692,-6.0559,-6.0561,-6.0562,0,-5.9986,-6.0032,-6.0072,-6.0102,-6.0123,-6.0172,-6.0202,-6.0208,-6.024,-6.0284,-6.0319,-6.0371,-6.0412,-6.0496,-6.0515,-6.0563,-6.0558,-6.0611,-6.0565,-6.0563,-6.0557,-6.0553,-6.0558,-6.0619,-6.0621,-6.0622,-6.0623,0,-6.0104,-6.0108,-6.0152,-6.0199,-6.0236,-6.0273,-6.0308,-6.0333,-6.0344,-6.0381,-6.0434,-6.0466,-6.053,-6.0581,-6.0628,-6.0648,-6.0637,-6.0638,-6.0651,-6.065,-6.0644,-6.0647,-6.0491,-6.0633,-6.0632,-6.0632,-6.0631,-6.0631,-6.0188,-6.0229,-6.0263,-6.0313,-6.034,-6.0374,-6.0414,-6.0431,-6.0476,-6.0528,-6.0529,-6.0588,-6.0622,-6.0685,-6.0708,-6.0754,-6.0737,-6.0757,-6.0762,-6.0766,-6.077,-6.0638,-6.0763,-6.0763,-6.0762,-6.0762,-6.0762,0,-6.0305,-6.0327,-6.0372,-6.0422,-6.0461,-6.0449,-6.0488,-6.0521,-6.0573,-6.0606,-6.0647,-6.0709,-6.0758,-6.0782,-6.0831,-6.0863,-6.086,-6.0876,-6.0873,-6.0877,-6.0783,-6.0766,-6.0878,-6.0878,-6.0878,-6.0878,-6.0878,-6.0878,-6.037,-6.0438,-6.0447,-6.0528,-6.055,-6.0607,-6.063,-6.0661,-6.0687,-6.0757,-6.0798,-6.0813,-6.0843,-6.0895,-6.094,-6.0946,-6.0963,-6.0982,-6.0985,-6.0896,-6.0884,-6.0873,-6.0856,-6.0986,-6.0986,-6.1076,-6.1077,-6.1077]},{"header":{"parameterUnit":"m.s-1","parameterCategory":1,"la1":30.2991,"la2":30.254,"lo1":-89.0895,"lo2":-89.0444,"dy":0.0017,"dx":0.0017,"nx":28,"ny":28,"refTime":"2024-03-25T03:00:00:Z","depth":0,"parameterNumber":3,"parameterNumberName":"V-component_of_WINDS"},"data":[0,0,0,0,0,0,0,0,0,0,0,0,0,0,0,0,0,0,0,0,0,0,0,0,0,0,0,0,0,0,0,0,0,0,0,0,0,0,0,0,0,0,0,0,0,0,0,0,0,0,0,0,0,0,0,0,0,0,4.9695,4.9695,0,4.9618,4.9618,4.9617,4.9526,4.9524,4.9523,4.9522,4.9439,4.9438,4.9437,0,0,0,0,0,0,0,0,0,0,0,0,0,4.9762,4.9762,4.9696,4.9695,4.9694,4.9619,4.9618,4.9616,4.9526,4.9524,4.9523,4.9521,4.9439,4.9438,4.9437,0,0,0,0,0,0,0,0,0,0,0,0,0,4.9714,4.9762,4.9696,4.9639,4.9634,4.9619,4.9617,4.9616,4.9526,4.9524,4.9522,4.952,4.944,4.9438,4.9437,4.947,0,0,4.9433,4.9432,0,0,0,0,0,0,0,0,4.9717,4.9712,4.9649,4.9643,4.9637,4.958,4.9611,4.9567,4.9527,4.9567,4.9522,4.9519,4.9487,4.9482,4.9472,4.9466,4.9463,4.9433,4.9432,4.9431,4.9431,0,0,0,0,0,0,0,4.9721,4.9715,4.9665,4.9648,4.9641,4.9618,4.9608,4.9602,4.9539,4.9563,4.9557,4.9549,4.9484,4.9473,4.9469,4.9461,4.9433,4.9431,4.9431,4.943,4.9482,4.9484,0,0,0,0,0,0,4.9733,4.9718,4.9667,4.9663,4.9673,4.9618,4.9608,4.96,4.9539,4.9528,4.9551,4.9545,4.9477,4.9471,4.9466,4.9502,4.9431,4.943,4.9429,4.9479,4.9482,4.9484,0,0,0,0,0,0,4.9735,4.9729,4.967,4.9688,4.9679,4.9619,4.9611,4.96,4.9589,4.953,4.9518,4.9552,4.9475,4.9468,4.9471,4.9498,4.9429,4.9428,4.9477,4.948,4.9483,4.9575,0,0,0,0,0,0,4.9737,4.973,4.9742,4.9689,4.9679,4.9677,4.9613,4.96,4.9588,4.9579,4.9528,4.9517,4.9473,4.9473,4.9469,4.9495,4.9427,4.9474,4.9478,4.9482,4.9569,4.9581,4.9591,0,0,0,0,0,4.974,4.977,4.9743,4.9738,4.9693,4.9679,4.9673,4.9622,4.959,4.9602,4.9564,4.9519,4.9496,4.9474,4.9469,4.9495,4.9472,4.9477,4.9482,4.9564,4.9579,4.9591,0,0,0,0,0,0,4.9826,4.9762,4.9732,4.9746,4.9719,4.9664,4.9677,4.9638,4.9618,4.9611,4.9547,4.9537,4.9548,4.9521,4.9498,4.9525,4.9477,4.9482,4.9542,4.9555,4.9566,4.9572,4.9426,0,0,0,0,0,4.9847,4.9842,4.9785,4.9803,4.9792,4.9737,4.9729,4.9692,4.9661,4.9649,4.9611,4.9581,4.9568,4.956,4.9543,4.9565,4.9553,4.958,4.9591,4.9601,4.9605,4.9617,4.9629,4.9501,4.9501,4.95,0,0,4.9889,4.9854,4.9854,4.982,4.9795,4.9791,4.9728,4.9725,4.9722,4.9647,4.9649,4.9621,4.9583,4.9597,4.96,4.9575,4.9638,4.9607,4.9615,4.9614,4.9623,4.9635,4.9646,4.9504,4.9503,4.9503,0,0,4.9965,4.9938,4.9951,4.9927,4.989,4.9854,4.9858,4.9809,4.9788,4.9788,4.9734,4.9728,4.9705,4.9682,4.9667,4.9738,4.9696,4.9734,4.9791,4.9804,4.9814,4.9822,4.9849,4.986,4.9739,4.9739,4.9739,0,5.0023,5.0015,4.9962,4.9964,4.9952,4.9886,4.99,4.9879,4.9838,4.9831,4.9803,4.9776,4.9746,4.9754,4.9772,4.9761,4.9764,4.974,4.9817,4.9825,4.9832,4.9857,4.9867,4.9744,4.9743,4.9743,4.9742,0,5.0088,5.0084,5.0099,5.0064,5.0053,5.0061,5.0009,5.0004,4.9969,4.9936,4.9938,4.9901,4.9877,4.9876,4.9841,4.988,4.9866,4.9829,4.978,4.985,4.9873,4.9882,4.9751,4.9749,4.9748,4.9746,0,0,5.0215,5.0153,5.0159,5.0144,5.01,5.0095,5.01,5.0079,5.0077,5.0051,5.0055,5.0039,5.0005,4.9988,4.995,4.9961,5.0022,4.9922,4.992,4.9944,5.0065,5.0095,5.0106,4.9994,4.9996,4.9997,5.0069,0,5.0284,5.0291,5.0244,5.0263,5.026,5.0199,5.0204,5.0178,5.0147,5.014,5.0105,5.0096,5.0051,5.0041,5.0049,5.0013,5.0046,5.0007,4.9997,4.9998,5.001,5.0118,5.0148,5.0218,5.0077,5.0078,5.0079,0,5.0365,5.0347,5.0367,5.0324,5.0321,5.0326,5.0304,5.0298,5.0267,5.0244,5.0228,5.0185,5.0187,5.0141,5.0144,5.0119,5.0113,5.0095,5.0096,5.0094,5.0044,5.012,5.0238,5.025,5.0092,5.0091,5.009,0,5.0458,5.0438,5.0448,5.0436,5.0386,5.0392,5.0371,5.0339,5.033,5.031,5.0304,5.0285,5.0275,5.0261,5.0214,5.0184,5.0224,5.0173,5.0206,5.0207,5.0217,5.0217,5.0337,5.0211,5.0211,5.0211,5.021,0,5.0541,5.0556,5.049,5.0496,5.0511,5.0457,5.0474,5.0447,5.0419,5.0419,5.0364,5.0365,5.0303,5.0298,5.0261,5.0271,5.0266,5.0248,5.0238,5.0254,5.0256,5.0249,5.0243,5.0213,5.0213,5.0212,5.0212,0,5.0647,5.0604,5.0611,5.0564,5.0553,5.0566,5.0526,5.0529,5.0497,5.0498,5.0495,5.0443,5.0434,5.0387,5.0365,5.0341,5.0364,5.0343,5.0375,5.0369,5.0405,5.0403,5.0526,5.054,5.0403,5.0405,5.0406,0,5.0704,5.0714,5.0669,5.0666,5.0649,5.0644,5.0635,5.0583,5.0576,5.0544,5.0552,5.0539,5.0526,5.0514,5.0474,5.0459,5.0438,5.0483,5.0436,5.0452,5.0441,5.0442,5.0444,5.0493,5.0495,5.0496,5.0497,0,5.0809,5.0787,5.0777,5.0761,5.0753,5.0737,5.0718,5.0718,5.0661,5.0656,5.0647,5.0637,5.0618,5.0606,5.0584,5.0562,5.0521,5.0513,5.052,5.0536,5.0555,5.0547,5.0404,5.051,5.0509,5.0508,5.0507,5.0507,5.0892,5.09,5.0871,5.0862,5.0843,5.0827,5.0829,5.0798,5.079,5.0771,5.074,5.0736,5.0707,5.0674,5.0656,5.0652,5.0628,5.0637,5.064,5.0644,5.0653,5.0555,5.0647,5.0647,5.0646,5.0646,5.0646,0,5.0996,5.0975,5.0968,5.0944,5.0938,5.0901,5.0879,5.0876,5.0874,5.085,5.0839,5.083,5.0819,5.078,5.0765,5.077,5.0751,5.0768,5.0767,5.0763,5.0674,5.067,5.0783,5.0783,5.0783,5.0783,5.0783,5.0783,5.105,5.1061,5.1037,5.1039,5.1016,5.1013,5.1004,5.0989,5.0971,5.0964,5.0955,5.093,5.0901,5.0884,5.0872,5.0861,5.0859,5.0882,5.0865,5.0782,5.0769,5.0757,5.0753,5.0882,5.0882,5.0955,5.0956,5.0957]}]]